Location: Jalan Sepang
(2.8072°N, 101.8021°E)
Time: 05:50:11
(UTC+00:00)

ARIANE 44LP R/B - Pass Details

Date: 15 May 2026
Orbit: 287 x 24785 km, 6.9° (Epoch: 7 June)

Event Time Altitude Azimuth Distance (km) Brightness Sun altitude
Rises 12:41:25 0° 271° (W) 11,081 10.2 -20.7°
Reaches altitude 10° 12:54:15 10° 274° (W) 6,413 8.7 -23.7°
Maximum altitude 13:07:13 58° 351° (N) 974 3.6 -26.7°
Enters shadow 13:07:48 54° 24° (NNE) 927 3.3 -26.8°
